Regional Weather Roundup
Issued by NWS

Home | Current Version | Previous Version | Graphics & Text | Print | Product List | Glossary On
Versions: 1 2 3 4 5 6 7 8 9 10 11 12 13 14 15 16 17 18 19 20 21 22 23 24 25 26 27 28 29 30 31 32 33 34 35 36 37 38 39 40 41 42 43 44 45 46 47 48 49 50
000
ASUS43 KDMX 310104
RWRIA

WEATHER ROUNDUP FOR IOWA
NATIONAL WEATHER SERVICE DES MOINES IA
  ISSUED BY NWS QUAD CITIES IA IL
700 PM CST FRI JAN 30 2015

NOTE: "FAIR" INDICATES FEW OR NO CLOUDS BELOW 12,000 FEET WITH NO
SIGNIFICANT WEATHER AND/OR OBSTRUCTIONS TO VISIBILITY.

* - THESE STATIONS ARE NOT NWS STATIONS...THUS NOT UNDER NWS
QUALITY CONTROL.  THEY ALSO DO NOT REPORT WEATHER SUCH
AS PRECIPITATION OR FOG.

IAZ001>003-012>014-020>022-031>034-043>046-310200-
   NORTHWEST IOWA

CITY           SKY/WX    TMP DP  RH WIND       PRES   REMARKS
CARROLL *      CLEAR     28  21  74 S10       30.29F WCI  19
CHEROKEE *     CLEAR     31  26  81 S9        30.24F WCI  23
DENNISON *     CLEAR     30  25  80 S15G23    30.26F WCI  19
LE MARS *      CLEAR     32  27  80 MISG      30.22F
ORANGE CITY *  CLEAR     32  27  80 S8        30.21S WCI  25
SIOUX CITY     CLEAR     33  26  75 SE7       30.25F WCI  27
SPENCER        CLEAR     31  25  78 S9        30.24S WCI  23
$$

IAZ055>058-069>071-079>083-090>094-310200-
   SOUTHWEST IOWA

CITY           SKY/WX    TMP DP  RH WIND       PRES   REMARKS
ATLANTIC *     MOCLDY    30  21  69 S9        30.32F WCI  22
AUDUBON *      CLEAR     30  21  69 S8        30.31F WCI  23
CLARINDA *     PTCLDY    28  19  69 S5        30.37F WCI  23
COUNCIL BLFS * PTCLDY    32  25  74 S13       30.29F WCI  22
CRESTON *      MOCLDY    28  19  69 S7        30.35S WCI  21
HARLAN *       MOCLDY    30  25  80 S10       30.34F WCI  21
LAMONI         PTCLDY    29  14  53 S10       30.36F WCI  20
RED OAK *      CLOUDY    30  21  69 S6        30.34F WCI  24
$$

IAZ047>049-059>061-072>074-084-310200-
   CENTRAL IOWA

CITY           SKY/WX    TMP DP  RH WIND       PRES   REMARKS
AMES           CLEAR     26  17  68 S7        30.33F WCI  18
ANKENY *       CLEAR     28  16  59 SE5       30.35F WCI  23
BOONE *        CLEAR     27  21  80 S7        30.30F WCI  19
CHARITON *     PTCLDY    28  18  64 S7        30.36F WCI  21
DES MOINES     FAIR      30  15  53 S7        30.35F WCI  23
GRINNELL *     CLEAR     25  18  73 S6        30.36F WCI  18
KNOXVILLE *    CLEAR     28  12  50 S6        30.35F WCI  22
MARSHALLTOWN   CLEAR     25  14  63 S7        30.33F WCI  17
PELLA *        CLEAR     29  17  61 S5        30.38F WCI  24
PERRY *          N/A     28  22  78 S9        30.32F WCI  20
$$

IAZ004>006-015-016-023>025-035-036-310200-
   NORTH CENTRAL IOWA

CITY           SKY/WX    TMP DP  RH WIND       PRES   REMARKS
ALGONA *       FAIR      30  25  80 S14       30.25F WCI  20
CLARION *      CLEAR     28  23  80 S12       30.29F WCI  18
ESTHERVILLE    CLEAR     29  24  82 S14       30.22F WCI  18
FORT DODGE *   CLEAR     30  18  59 S9        30.29F WCI  22
MASON CITY     CLEAR     25  19  78 S12       30.29F WCI  14
WEBSTER CITY * CLEAR     30  19  64 S12       30.28F WCI  21
IOWA FALLS *   FAIR      26  20  76 S7        30.32F WCI  19
$$

IAZ007>011-017>019-026>030-037>042-050>054-066-310200-
   NORTHEAST IOWA

CITY           SKY/WX    TMP DP  RH WIND       PRES   REMARKS
CEDAR RAPIDS   CLEAR     23  15  71 S3        30.36F
CHARLES CITY * CLEAR     23  16  74 S9        30.32F WCI  13
CLINTON *      CLEAR     23  14  68 CALM      30.44S
DECORAH *      CLEAR     23  10  58 S6        30.31F WCI  16
DUBUQUE        CLEAR     19  13  77 S7        30.36F WCI  10
MONTICELLO *   CLEAR     23  19  86 S8        30.38F WCI  14
OELWEIN *      CLEAR     23  16  74 S8        30.35F WCI  14
WATERLOO       CLEAR     24  15  68 S7        30.34F WCI  16
$$

IAZ064-065-067-068-078-310200-
   EAST CENTRAL IOWA

CITY           SKY/WX    TMP DP  RH WIND       PRES   REMARKS
DAVENPORT      CLEAR     22  15  75 S6        30.41F WCI  14
IOWA CITY      CLEAR     25  16  68 SE3       30.41F
MT. PLEASANT * CLEAR     26  19  73 S6        30.41F WCI  20
MUSCATINE *    CLEAR     27  21  80 CALM      30.43S
QUAD CITIES    CLEAR     24  18  77 CALM      30.41F
$$

IAZ062-063-075>077-085>089-095>099-310200-
   SOUTHEAST IOWA

CITY           SKY/WX    TMP DP  RH WIND       PRES   REMARKS
BURLINGTON     CLEAR     27  18  69 S6        30.40F WCI  20
FAIRFIELD *    CLEAR     28  16  59 S6        30.40F WCI  22
FORT MADISON * CLEAR     28  19  69 S5        30.42F WCI  23
KEOKUK *       CLEAR     30  18  59 S5        30.41F WCI  25
OTTUMWA        CLEAR     26  15  63 SE3       30.38F
WASHINGTON *   CLEAR     28  18  64 S3        30.39F
$$

ABBREVIATIONS USED IN REMARKS
   TC - TEMPERATURES IN CELSIUS
  WCI - WIND CHILL INDEX
   HX - HEAT INDEX
  VSB - VISIBILITY
$$



USA.gov is the U.S. government's official web portal to all federal, state and local government web resources and services.